Location: Mount Kobau Star Party
(49.1167°N, 119.7333°W)
Time: 22:29:43
(UTC-08:00)

Tiangong - Visible Passes

Search period start: 22 February 2024 00:00
Search period end: 03 March 2024 00:00
Orbit: 375 x 387 km, 41.5° (Epoch: 22 February)

Date Brightness Start Highest point End Pass type
(mag) Time Alt. Az. Time Alt. Az. Time Alt. Az.
28 Feb 0.6 19:29:58 10° S 19:30:00 10° S 19:30:00 10° S visible
01 Mar -0.1 19:03:28 10° SSW 19:05:23 15° SSE 19:05:54 15° SSE visible
02 Mar -0.1 19:38:02 10° SW 19:39:44 18° SSW 19:39:44 18° SSW visible
